QPF
0.06 0.06 0.10 0.13 0.14 0.15 0.14 0.10 0.11 0.11 0.10 0.10 0.10 0.11 0.10 0.10 0.08 0.08 0.08 0.04 0.03 0.03 0.03 0.03 0.02 0.02 0.02 0.02 0.02 0.03 0.03 0.03 0.04 0.03 0.03 0.05 0.05 0.04 0.03 0.01 0.02 0.02 0.01
0.09 0.06 0.11 0.14 0.16 0.13 0.11 0.12 0.11 0.12 0.12 0.09 0.07 0.08 0.11 0.13 0.13 0.13 0.13 0.06 0.04 0.03 0.02 0.02 0.02 0.02 0.02 0.02 0.01 0.02 0.03 0.02 0.02 0.02 0.02 0.03 0.03 0.02 0.02 0.01 0.02 0.03 0.02
0.13 0.07 0.07 0.11 0.13 0.13 0.11 0.11 0.13 0.15 0.16 0.15 0.14 0.11 0.11 0.15 0.17 0.14 0.11 0.06 0.04 0.04 0.02 0.02 0.03 0.03 0.02 0.01 0.01 0.01 0.02 0.01 0.01 0.01 0.01 0.01 0.02 0.01 0.00 0.01 0.01 0.01 0.02
0.07 0.07 0.08 0.10 0.09 0.10 0.12 0.14 0.20 0.20 0.19 0.17 0.14 0.08 0.06 0.07 0.08 0.07 0.07 0.05 0.05 0.05 0.04 0.03 0.04 0.04 0.03 0.02 0.01 0.01 0.01 0.01 0.01 0.00 0.01 0.00 0.00 0.01 0.00 0.00 0.01 0.01 0.01
0.08 0.07 0.08 0.11 0.11 0.11 0.13 0.17 0.24 0.24 0.21 0.18 0.14 0.10 0.07 0.07 0.09 0.09 0.08 0.06 0.05 0.05 0.04 0.05 0.05 0.04 0.03 0.03 0.02 0.01 0.01 0.01 0.01 0.01 0.01 0.01 0.01 0.00 0.01 0.01 0.01 0.01 0.01
0.09 0.10 0.11 0.13 0.11 0.12 0.14 0.17 0.21 0.22 0.22 0.22 0.20 0.16 0.11 0.10 0.11 0.09 0.07 0.07 0.08 0.07 0.05 0.05 0.05 0.03 0.02 0.02 0.02 0.01 0.01 0.01 0.01 0.01 0.01 0.01 0.00 0.00 0.01 0.01 0.01 0.01 0.01
0.07 0.08 0.10 0.09 0.10 0.11 0.12 0.13 0.16 0.19 0.22 0.23 0.22 0.22 0.16 0.13 0.13 0.12 0.08 0.07 0.07 0.05 0.05 0.04 0.04 0.03 0.02 0.02 0.02 0.01 0.01 0.01 0.01 0.01 0.01 0.01 0.01 0.01 0.01 0.01 0.01 0.01 0.01
0.06 0.05 0.06 0.07 0.07 0.08 0.11 0.10 0.13 0.16 0.19 0.21 0.21 0.22 0.20 0.17 0.15 0.15 0.13 0.09 0.06 0.05 0.05 0.05 0.04 0.03 0.02 0.01 0.02 0.02 0.01 0.01 0.01 0.01 0.01 0.00 0.00 0.01 0.01 0.01 0.01 0.01 0.02
0.05 0.04 0.06 0.08 0.09 0.09 0.12 0.13 0.14 0.16 0.15 0.16 0.20 0.21 0.20 0.17 0.17 0.15 0.13 0.11 0.08 0.07 0.07 0.06 0.05 0.03 0.02 0.01 0.01 0.01 0.01 0.01 0.01 0.01 0.01 0.00 0.00 0.00 0.00 0.01 0.01 0.01 0.02
0.07 0.04 0.04 0.06 0.11 0.16 0.15 0.15 0.16 0.15 0.16 0.16 0.16 0.17 0.16 0.16 0.17 0.16 0.13 0.10 0.08 0.07 0.09 0.09 0.06 0.04 0.03 0.02 0.01 0.01 0.01 0.01 0.01 0.01 0.01 0.00 0.00 0.00 0.00 0.01 0.01 0.01 0.01
0.08 0.05 0.04 0.04 0.06 0.08 0.12 0.12 0.11 0.10 0.10 0.12 0.14 0.16 0.16 0.19 0.19 0.16 0.11 0.09 0.07 0.05 0.07 0.08 0.06 0.05 0.04 0.03 0.02 0.01 0.01 0.02 0.02 0.01 0.01 0.00 0.00 0.00 0.00 0.01 0.01 0.01 0.01
0.13 0.08 0.06 0.04 0.04 0.06 0.11 0.12 0.09 0.07 0.06 0.08 0.11 0.13 0.13 0.14 0.15 0.15 0.13 0.10 0.07 0.05 0.06 0.07 0.06 0.05 0.04 0.04 0.02 0.01 0.01 0.01 0.01 0.01 0.02 0.01 0.01 0.01 0.01 0.01 0.01 0.01 0.01
0.21 0.14 0.10 0.07 0.05 0.05 0.08 0.07 0.05 0.05 0.05 0.06 0.08 0.09 0.08 0.08 0.10 0.10 0.10 0.08 0.09 0.08 0.07 0.07 0.06 0.04 0.03 0.03 0.03 0.02 0.02 0.01 0.01 0.02 0.03 0.02 0.02 0.01 0.01 0.01 0.01 0.01 0.01
0.26 0.25 0.17 0.14 0.11 0.07 0.06 0.04 0.03 0.04 0.04 0.05 0.06 0.08 0.06 0.05 0.06 0.07 0.06 0.06 0.06 0.06 0.06 0.06 0.05 0.05 0.04 0.03 0.03 0.03 0.03 0.02 0.03 0.04 0.04 0.04 0.03 0.02 0.02 0.02 0.02 0.03 0.03
0.17 0.17 0.11 0.10 0.12 0.09 0.08 0.05 0.04 0.05 0.05 0.06 0.07 0.09 0.09 0.08 0.07 0.06 0.05 0.06 0.06 0.05 0.05 0.05 0.04 0.05 0.06 0.05 0.04 0.05 0.05 0.06 0.06 0.05 0.05 0.05 0.05 0.05 0.04 0.05 0.05 0.05 0.04
0.11 0.09 0.08 0.07 0.05 0.04 0.04 0.03 0.03 0.04 0.06 0.07 0.08 0.09 0.14 0.13 0.09 0.08 0.07 0.06 0.07 0.06 0.06 0.06 0.07 0.07 0.06 0.08 0.08 0.08 0.09 0.08 0.07 0.07 0.06 0.05 0.05 0.04 0.04 0.04 0.03 0.02 0.02
0.10 0.08 0.08 0.09 0.05 0.05 0.03 0.03 0.03 0.04 0.06 0.08 0.09 0.10 0.14 0.15 0.14 0.11 0.09 0.08 0.09 0.10 0.09 0.09 0.09 0.09 0.09 0.12 0.11 0.09 0.08 0.08 0.08 0.07 0.05 0.05 0.05 0.06 0.05 0.06 0.06 0.04 0.03
0.07 0.06 0.06 0.07 0.07 0.05 0.04 0.04 0.04 0.05 0.07 0.09 0.10 0.10 0.10 0.14 0.16 0.14 0.13 0.11 0.11 0.12 0.13 0.14 0.13 0.13 0.12 0.13 0.10 0.09 0.07 0.06 0.06 0.05 0.05 0.04 0.03 0.04 0.05 0.05 0.05 0.04 0.04
0.06 0.05 0.05 0.06 0.07 0.07 0.08 0.07 0.07 0.08 0.10 0.12 0.10 0.10 0.12 0.14 0.16 0.19 0.18 0.17 0.19 0.17 0.15 0.13 0.11 0.11 0.11 0.14 0.13 0.12 0.09 0.07 0.06 0.06 0.05 0.05 0.04 0.04 0.06 0.06 0.05 0.04 0.03
0.07 0.06 0.06 0.06 0.08 0.11 0.10 0.10 0.11 0.11 0.12 0.12 0.12 0.12 0.14 0.16 0.15 0.17 0.19 0.20 0.20 0.21 0.23 0.20 0.16 0.16 0.16 0.19 0.18 0.17 0.15 0.13 0.11 0.09 0.07 0.07 0.06 0.07 0.08 0.07 0.07 0.06 0.06
0.07 0.07 0.07 0.07 0.09 0.10 0.12 0.14 0.16 0.17 0.15 0.15 0.17 0.17 0.18 0.20 0.18 0.18 0.22 0.24 0.26 0.28 0.27 0.23 0.20 0.19 0.17 0.17 0.18 0.19 0.18 0.16 0.15 0.14 0.13 0.12 0.12 0.11 0.10 0.09 0.08 0.07 0.06
0.06 0.06 0.06 0.07 0.09 0.12 0.13 0.14 0.15 0.15 0.14 0.15 0.18 0.20 0.23 0.25 0.26 0.25 0.24 0.24 0.25 0.26 0.25 0.23 0.22 0.21 0.19 0.17 0.16 0.16 0.15 0.14 0.12 0.12 0.12 0.11 0.11 0.09 0.08 0.08 0.07 0.07 0.06
0.06 0.06 0.06 0.08 0.10 0.13 0.12 0.10 0.10 0.12 0.13 0.14 0.16 0.22 0.26 0.27 0.23 0.22 0.20 0.19 0.18 0.17 0.17 0.18 0.20 0.22 0.22 0.21 0.20 0.18 0.16 0.15 0.13 0.12 0.11 0.10 0.08 0.06 0.04 0.03 0.03 0.03 0.03
0.04 0.04 0.04 0.06 0.08 0.10 0.10 0.08 0.07 0.08 0.10 0.11 0.12 0.15 0.19 0.22 0.21 0.20 0.20 0.21 0.23 0.24 0.22 0.20 0.19 0.20 0.21 0.21 0.20 0.19 0.17 0.16 0.14 0.11 0.09 0.07 0.05 0.04 0.03 0.03 0.03 0.03 0.03
0.03 0.03 0.03 0.04 0.04 0.04 0.04 0.04 0.03 0.04 0.06 0.07 0.08 0.11 0.12 0.15 0.16 0.16 0.17 0.18 0.17 0.17 0.16 0.16 0.17 0.18 0.20 0.21 0.21 0.19 0.15 0.14 0.13 0.11 0.09 0.08 0.07 0.06 0.05 0.04 0.04 0.03 0.04
0.02 0.02 0.02 0.02 0.02 0.02 0.02 0.02 0.01 0.02 0.04 0.05 0.06 0.07 0.07 0.06 0.07 0.06 0.06 0.07 0.09 0.09 0.09 0.09 0.09 0.08 0.08 0.08 0.07 0.07 0.07 0.07 0.07 0.08 0.08 0.08 0.08 0.06 0.05 0.04 0.03 0.03 0.03
MSLP
1005.17 1005.41 1005.72 1006.09 1006.48 1006.90 1007.34 1007.83 1008.38 1009.01 1009.69 1010.42 1011.16 1011.88 1012.53 1013.10 1013.56 1013.93 1014.23 1014.49 1014.73 1014.99 1015.28 1015.60 1015.94 1016.29 1016.63 1016.96 1017.28 1017.58 1017.90 1018.23 1018.57 1018.92 1019.25 1019.54 1019.77 1019.90 1019.94 1019.89 1019.78 1019.66 1019.57
1005.33 1005.52 1005.78 1006.06 1006.37 1006.69 1007.04 1007.47 1007.99 1008.62 1009.35 1010.16 1010.99 1011.78 1012.50 1013.10 1013.57 1013.91 1014.16 1014.36 1014.55 1014.78 1015.05 1015.39 1015.76 1016.15 1016.54 1016.90 1017.24 1017.55 1017.86 1018.17 1018.50 1018.85 1019.18 1019.49 1019.75 1019.91 1019.98 1019.95 1019.85 1019.71 1019.58
1005.62 1005.74 1005.92 1006.12 1006.33 1006.55 1006.82 1007.17 1007.65 1008.27 1009.03 1009.88 1010.78 1011.65 1012.43 1013.07 1013.55 1013.88 1014.10 1014.26 1014.41 1014.61 1014.87 1015.20 1015.59 1016.01 1016.41 1016.80 1017.15 1017.46 1017.77 1018.07 1018.39 1018.73 1019.09 1019.42 1019.71 1019.92 1020.02 1020.02 1019.93 1019.78 1019.62
1006.03 1006.06 1006.16 1006.27 1006.38 1006.50 1006.67 1006.93 1007.34 1007.92 1008.66 1009.53 1010.46 1011.38 1012.21 1012.89 1013.40 1013.75 1013.97 1014.11 1014.25 1014.43 1014.68 1015.01 1015.40 1015.82 1016.24 1016.63 1016.99 1017.31 1017.61 1017.91 1018.24 1018.59 1018.96 1019.33 1019.65 1019.91 1020.05 1020.09 1020.02 1019.86 1019.66
1006.52 1006.46 1006.48 1006.50 1006.52 1006.54 1006.59 1006.74 1007.05 1007.54 1008.23 1009.06 1009.98 1010.91 1011.77 1012.49 1013.05 1013.43 1013.68 1013.85 1014.00 1014.18 1014.43 1014.76 1015.15 1015.58 1016.00 1016.40 1016.77 1017.09 1017.40 1017.71 1018.05 1018.41 1018.80 1019.20 1019.56 1019.85 1020.04 1020.11 1020.05 1019.90 1019.68
1007.02 1006.89 1006.84 1006.79 1006.73 1006.64 1006.59 1006.61 1006.79 1007.16 1007.73 1008.48 1009.34 1010.25 1011.11 1011.87 1012.46 1012.90 1013.21 1013.43 1013.63 1013.84 1014.11 1014.45 1014.84 1015.27 1015.70 1016.11 1016.48 1016.82 1017.14 1017.47 1017.82 1018.20 1018.61 1019.02 1019.41 1019.73 1019.96 1020.05 1020.02 1019.87 1019.64
1007.47 1007.30 1007.21 1007.11 1006.98 1006.82 1006.65 1006.54 1006.58 1006.80 1007.22 1007.85 1008.62 1009.46 1010.30 1011.07 1011.71 1012.22 1012.60 1012.90 1013.16 1013.42 1013.73 1014.09 1014.50 1014.93 1015.37 1015.79 1016.17 1016.53 1016.87 1017.21 1017.57 1017.96 1018.37 1018.80 1019.20 1019.54 1019.78 1019.90 1019.90 1019.77 1019.54
1007.82 1007.65 1007.55 1007.44 1007.27 1007.04 1006.78 1006.56 1006.45 1006.52 1006.79 1007.27 1007.92 1008.68 1009.47 1010.24 1010.92 1011.49 1011.95 1012.33 1012.66 1012.99 1013.34 1013.73 1014.16 1014.60 1015.05 1015.47 1015.87 1016.24 1016.59 1016.95 1017.31 1017.70 1018.12 1018.53 1018.93 1019.27 1019.52 1019.67 1019.69 1019.59 1019.39
1008.03 1007.90 1007.82 1007.73 1007.56 1007.30 1006.99 1006.68 1006.46 1006.39 1006.51 1006.85 1007.38 1008.04 1008.78 1009.53 1010.23 1010.84 1011.37 1011.82 1012.23 1012.62 1013.01 1013.43 1013.87 1014.32 1014.77 1015.21 1015.61 1016.00 1016.36 1016.71 1017.08 1017.46 1017.85 1018.25 1018.62 1018.95 1019.20 1019.36 1019.41 1019.36 1019.21
1008.12 1008.05 1008.03 1007.98 1007.83 1007.58 1007.25 1006.90 1006.61 1006.45 1006.47 1006.70 1007.12 1007.69 1008.36 1009.07 1009.77 1010.41 1010.98 1011.48 1011.93 1012.36 1012.79 1013.22 1013.67 1014.13 1014.58 1015.01 1015.42 1015.81 1016.17 1016.52 1016.87 1017.22 1017.58 1017.94 1018.28 1018.59 1018.84 1019.01 1019.09 1019.09 1019.01
1008.12 1008.14 1008.19 1008.18 1008.08 1007.86 1007.55 1007.21 1006.91 1006.72 1006.69 1006.85 1007.19 1007.69 1008.30 1008.96 1009.62 1010.25 1010.82 1011.34 1011.81 1012.25 1012.68 1013.12 1013.56 1014.00 1014.45 1014.87 1015.28 1015.66 1016.01 1016.35 1016.67 1016.99 1017.31 1017.63 1017.93 1018.20 1018.44 1018.62 1018.74 1018.79 1018.78
1008.13 1008.22 1008.31 1008.35 1008.29 1008.12 1007.86 1007.57 1007.31 1007.14 1007.12 1007.26 1007.56 1008.00 1008.55 1009.15 1009.75 1010.33 1010.87 1011.36 1011.81 1012.23 1012.64 1013.06 1013.48 1013.91 1014.33 1014.74 1015.14 1015.50 1015.84 1016.15 1016.45 1016.73 1017.01 1017.27 1017.53 1017.78 1018.00 1018.19 1018.34 1018.45 1018.52
1008.22 1008.34 1008.45 1008.50 1008.47 1008.34 1008.15 1007.93 1007.75 1007.65 1007.67 1007.83 1008.12 1008.53 1009.02 1009.54 1010.06 1010.56 1011.02 1011.45 1011.84 1012.22 1012.59 1012.97 1013.36 1013.76 1014.16 1014.55 1014.93 1015.27 1015.59 1015.88 1016.14 1016.39 1016.63 1016.85 1017.07 1017.28 1017.49 1017.69 1017.87 1018.03 1018.16
1008.45 1008.56 1008.64 1008.66 1008.62 1008.51 1008.37 1008.24 1008.15 1008.14 1008.24 1008.44 1008.74 1009.12 1009.54 1009.98 1010.40 1010.79 1011.15 1011.48 1011.79 1012.10 1012.42 1012.76 1013.12 1013.49 1013.87 1014.23 1014.59 1014.91 1015.21 1015.47 1015.71 1015.92 1016.12 1016.31 1016.50 1016.69 1016.89 1017.09 1017.29 1017.48 1017.67
1008.86 1008.91 1008.90 1008.85 1008.76 1008.64 1008.54 1008.47 1008.47 1008.56 1008.73 1008.98 1009.29 1009.63 1009.99 1010.32 1010.62 1010.89 1011.13 1011.36 1011.58 1011.82 1012.08 1012.38 1012.70 1013.05 1013.40 1013.75 1014.08 1014.38 1014.65 1014.89 1015.10 1015.29 1015.46 1015.63 1015.80 1015.97 1016.16 1016.36 1016.58 1016.79 1017.01
1009.45 1009.38 1009.25 1009.09 1008.91 1008.76 1008.66 1008.63 1008.70 1008.86 1009.09 1009.37 1009.68 1009.98 1010.25 1010.48 1010.66 1010.80 1010.91 1011.03 1011.16 1011.34 1011.55 1011.82 1012.12 1012.44 1012.78 1013.11 1013.41 1013.70 1013.94 1014.15 1014.34 1014.51 1014.66 1014.82 1014.97 1015.14 1015.33 1015.52 1015.74 1015.96 1016.19
1010.16 1009.96 1009.69 1009.39 1009.12 1008.90 1008.77 1008.76 1008.86 1009.06 1009.33 1009.62 1009.90 1010.15 1010.33 1010.44 1010.50 1010.51 1010.52 1010.54 1010.60 1010.72 1010.91 1011.15 1011.44 1011.75 1012.07 1012.38 1012.66 1012.92 1013.13 1013.32 1013.48 1013.63 1013.77 1013.92 1014.07 1014.24 1014.42 1014.61 1014.82 1015.04 1015.27
1010.93 1010.61 1010.21 1009.79 1009.41 1009.12 1008.96 1008.93 1009.04 1009.25 1009.51 1009.79 1010.02 1010.19 1010.28 1010.29 1010.23 1010.14 1010.05 1010.01 1010.02 1010.11 1010.28 1010.52 1010.80 1011.11 1011.41 1011.70 1011.95 1012.16 1012.33 1012.48 1012.61 1012.74 1012.87 1013.01 1013.17 1013.34 1013.52 1013.71 1013.91 1014.11 1014.32
1011.71 1011.30 1010.80 1010.28 1009.82 1009.48 1009.27 1009.23 1009.32 1009.51 1009.74 1009.97 1010.15 1010.24 1010.24 1010.15 1010.00 1009.83 1009.68 1009.59 1009.58 1009.66 1009.83 1010.08 1010.36 1010.65 1010.93 1011.18 1011.39 1011.54 1011.67 1011.77 1011.86 1011.96 1012.07 1012.21 1012.36 1012.54 1012.72 1012.91 1013.09 1013.27 1013.45
1012.46 1012.00 1011.45 1010.89 1010.39 1010.00 1009.77 1009.70 1009.77 1009.92 1010.11 1010.28 1010.39 1010.41 1010.33 1010.16 1009.95 1009.73 1009.55 1009.45 1009.44 1009.53 1009.70 1009.95 1010.23 1010.50 1010.75 1010.95 1011.09 1011.19 1011.24 1011.28 1011.33 1011.39 1011.48 1011.60 1011.76 1011.93 1012.11 1012.29 1012.47 1012.63 1012.77
1013.15 1012.70 1012.15 1011.59 1011.09 1010.71 1010.47 1010.38 1010.41 1010.53 1010.67 1010.78 1010.83 1010.78 1010.64 1010.43 1010.18 1009.95 1009.77 1009.67 1009.67 1009.78 1009.97 1010.21 1010.48 1010.72 1010.92 1011.05 1011.12 1011.14 1011.12 1011.09 1011.07 1011.09 1011.15 1011.26 1011.41 1011.58 1011.76 1011.93 1012.09 1012.23 1012.34
1013.79 1013.38 1012.89 1012.38 1011.92 1011.56 1011.33 1011.23 1011.25 1011.33 1011.42 1011.48 1011.47 1011.38 1011.21 1010.98 1010.73 1010.50 1010.34 1010.26 1010.29 1010.42 1010.61 1010.85 1011.08 1011.28 1011.41 1011.47 1011.46 1011.39 1011.29 1011.19 1011.11 1011.09 1011.12 1011.20 1011.34 1011.50 1011.67 1011.84 1011.98 1012.09 1012.18
1014.39 1014.07 1013.66 1013.22 1012.82 1012.51 1012.30 1012.21 1012.20 1012.25 1012.30 1012.32 1012.28 1012.16 1011.98 1011.75 1011.53 1011.33 1011.21 1011.17 1011.22 1011.36 1011.55 1011.77 1011.96 1012.09 1012.16 1012.14 1012.04 1011.89 1011.72 1011.55 1011.42 1011.34 1011.34 1011.40 1011.52 1011.67 1011.83 1011.98 1012.11 1012.20 1012.26
1014.98 1014.74 1014.42 1014.07 1013.75 1013.48 1013.31 1013.22 1013.19 1013.21 1013.22 1013.21 1013.15 1013.03 1012.86 1012.66 1012.48 1012.33 1012.25 1012.25 1012.33 1012.48 1012.65 1012.83 1012.97 1013.04 1013.03 1012.93 1012.77 1012.54 1012.31 1012.09 1011.91 1011.81 1011.78 1011.82 1011.92 1012.05 1012.19 1012.33 1012.43 1012.50 1012.53
1015.56 1015.40 1015.17 1014.90 1014.64 1014.42 1014.26 1014.17 1014.13 1014.11 1014.10 1014.06 1013.99 1013.88 1013.74 1013.59 1013.46 1013.37 1013.34 1013.38 1013.47 1013.61 1013.77 1013.90 1013.99 1014.00 1013.92 1013.76 1013.53 1013.26 1012.98 1012.73 1012.53 1012.41 1012.36 1012.39 1012.46 1012.58 1012.70 1012.81 1012.89 1012.93 1012.94
1016.13 1016.05 1015.88 1015.68 1015.47 1015.28 1015.12 1015.01 1014.94 1014.90 1014.85 1014.80 1014.72 1014.63 1014.53 1014.44 1014.36 1014.33 1014.35 1014.42 1014.53 1014.66 1014.79 1014.88 1014.91 1014.86 1014.73 1014.52 1014.26 1013.97 1013.68 1013.42 1013.22 1013.10 1013.04 1013.06 1013.12 1013.21 1013.30 1013.38 1013.43 1013.44 1013.42
Thickness
5800 5798 5794 5790 5786 5782 5776 5773 5769 5766 5762 5758 5754 5751 5750 5750 5749 5749 5748 5747 5746 5745 5744 5743 5742 5740 5738 5736 5735 5733 5731 5730 5730 5727 5724 5726 5729 5729 5729 5729 5728 5727 5726
5791 5790 5788 5786 5783 5779 5774 5770 5768 5765 5762 5759 5756 5754 5751 5748 5748 5747 5746 5745 5744 5744 5743 5742 5740 5739 5737 5735 5734 5732 5729 5729 5729 5725 5718 5715 5719 5724 5729 5728 5728 5728 5727
5788 5785 5783 5782 5780 5777 5773 5770 5767 5764 5762 5758 5754 5750 5746 5743 5741 5742 5743 5743 5743 5743 5742 5740 5739 5738 5737 5734 5733 5732 5730 5726 5727 5727 5721 5712 5710 5716 5723 5727 5728 5728 5728
5790 5785 5782 5779 5778 5776 5774 5770 5766 5762 5759 5756 5752 5749 5745 5741 5742 5742 5741 5741 5741 5741 5740 5739 5738 5737 5736 5734 5733 5732 5731 5728 5724 5725 5726 5724 5721 5715 5714 5721 5726 5728 5728
5787 5783 5781 5779 5778 5776 5771 5767 5763 5760 5757 5755 5751 5748 5745 5743 5742 5740 5739 5738 5739 5739 5739 5738 5737 5735 5734 5733 5732 5731 5730 5729 5726 5724 5723 5722 5721 5720 5715 5713 5719 5723 5727
5784 5781 5779 5777 5774 5772 5769 5765 5760 5757 5755 5752 5749 5747 5745 5742 5739 5737 5736 5736 5735 5736 5736 5736 5735 5734 5733 5732 5731 5730 5729 5728 5727 5726 5724 5722 5720 5718 5716 5713 5714 5717 5723
5778 5775 5773 5770 5769 5767 5764 5761 5756 5753 5752 5749 5747 5746 5744 5742 5739 5737 5735 5734 5733 5733 5734 5734 5733 5732 5732 5731 5730 5729 5728 5727 5726 5725 5724 5724 5723 5723 5720 5716 5714 5715 5719
5775 5773 5771 5768 5766 5763 5761 5758 5754 5750 5749 5747 5745 5744 5743 5741 5739 5738 5736 5734 5734 5734 5733 5733 5732 5731 5730 5730 5729 5728 5727 5726 5725 5725 5724 5723 5724 5724 5723 5720 5716 5712 5713
5772 5770 5767 5764 5762 5760 5759 5757 5753 5749 5748 5747 5744 5742 5741 5740 5738 5737 5735 5734 5733 5732 5731 5731 5730 5729 5729 5728 5727 5726 5725 5724 5724 5723 5723 5722 5723 5723 5724 5723 5721 5714 5707
5767 5765 5764 5762 5761 5759 5758 5756 5753 5750 5748 5747 5745 5743 5741 5739 5737 5735 5733 5732 5731 5731 5730 5730 5729 5728 5727 5726 5724 5723 5723 5722 5722 5722 5721 5720 5721 5721 5722 5721 5720 5718 5713
5761 5761 5761 5760 5758 5756 5754 5752 5751 5748 5746 5746 5744 5742 5740 5738 5736 5733 5732 5731 5730 5730 5729 5728 5727 5726 5725 5723 5722 5721 5721 5719 5719 5720 5719 5719 5719 5718 5718 5718 5718 5716 5714
5759 5758 5756 5755 5754 5751 5750 5749 5748 5746 5745 5745 5743 5740 5738 5737 5734 5732 5732 5731 5730 5729 5729 5727 5726 5724 5723 5721 5720 5719 5719 5718 5717 5717 5717 5716 5717 5716 5715 5714 5714 5713 5712
5756 5755 5752 5751 5751 5749 5747 5747 5746 5745 5744 5743 5741 5739 5737 5735 5733 5732 5732 5730 5729 5728 5727 5726 5724 5723 5721 5720 5719 5718 5717 5717 5716 5716 5715 5714 5714 5712 5712 5711 5710 5710 5709
5753 5751 5748 5748 5749 5749 5747 5746 5745 5745 5743 5741 5740 5738 5736 5734 5733 5732 5731 5729 5728 5727 5725 5724 5723 5722 5720 5718 5717 5716 5715 5715 5715 5715 5714 5713 5712 5711 5710 5709 5707 5706 5704
5750 5749 5748 5747 5746 5746 5745 5745 5744 5743 5743 5740 5738 5737 5736 5734 5732 5730 5729 5728 5727 5726 5724 5722 5721 5720 5718 5717 5716 5715 5714 5712 5712 5711 5711 5711 5711 5710 5708 5707 5704 5702 5698
5751 5749 5748 5747 5746 5745 5744 5744 5743 5743 5741 5739 5738 5737 5735 5732 5730 5729 5727 5726 5724 5723 5721 5720 5719 5717 5717 5717 5716 5714 5712 5710 5708 5707 5707 5707 5707 5706 5705 5704 5702 5699 5695
5747 5746 5746 5745 5745 5745 5745 5743 5743 5742 5740 5738 5737 5736 5734 5731 5729 5728 5725 5723 5722 5721 5719 5718 5717 5715 5715 5715 5714 5713 5710 5708 5706 5705 5703 5703 5703 5702 5700 5699 5698 5695 5693
5740 5741 5742 5742 5742 5742 5742 5742 5742 5740 5738 5737 5736 5735 5733 5730 5728 5726 5723 5721 5720 5718 5716 5715 5714 5712 5711 5711 5710 5708 5706 5704 5703 5702 5700 5698 5697 5697 5695 5693 5691 5689 5687
5735 5736 5738 5738 5738 5739 5740 5740 5738 5737 5736 5734 5734 5734 5732 5729 5726 5724 5721 5719 5717 5714 5712 5711 5709 5707 5706 5706 5705 5703 5700 5698 5697 5697 5695 5693 5692 5691 5689 5686 5684 5682 5681
5729 5730 5732 5733 5732 5734 5736 5736 5733 5731 5731 5731 5732 5732 5730 5728 5725 5722 5719 5717 5714 5710 5708 5705 5703 5702 5701 5700 5699 5697 5694 5691 5690 5689 5688 5687 5685 5683 5681 5678 5676 5673 5672
5720 5722 5723 5724 5725 5727 5729 5727 5726 5725 5727 5728 5727 5726 5725 5723 5721 5718 5715 5711 5708 5704 5701 5697 5695 5694 5693 5693 5692 5690 5688 5686 5683 5681 5679 5679 5677 5675 5673 5670 5668 5666 5663
5710 5712 5713 5713 5716 5719 5719 5717 5716 5718 5721 5721 5719 5718 5717 5716 5714 5711 5707 5704 5701 5697 5693 5690 5687 5685 5684 5684 5683 5682 5680 5678 5675 5673 5671 5670 5668 5666 5663 5660 5658 5656 5653
5698 5700 5701 5702 5702 5705 5707 5706 5706 5709 5710 5709 5707 5706 5705 5704 5703 5701 5698 5694 5691 5688 5684 5681 5678 5675 5675 5674 5674 5672 5670 5668 5665 5663 5661 5659 5658 5655 5652 5650 5647 5644 5641
5686 5688 5689 5689 5688 5691 5693 5694 5696 5698 5699 5697 5695 5694 5693 5691 5689 5688 5687 5684 5680 5677 5674 5671 5668 5666 5664 5663 5662 5661 5659 5656 5654 5651 5649 5648 5645 5642 5639 5637 5634 5631 5627
5674 5676 5676 5676 5676 5679 5680 5682 5685 5687 5687 5686 5684 5682 5680 5679 5676 5673 5670 5669 5667 5667 5664 5661 5659 5656 5653 5652 5651 5649 5647 5645 5643 5640 5638 5635 5631 5628 5625 5621 5618 5616 5613
5662 5663 5664 5664 5665 5667 5669 5671 5674 5676 5676 5674 5672 5671 5669 5667 5665 5661 5656 5653 5653 5653 5652 5651 5649 5646 5643 5641 5640 5638 5636 5634 5632 5628 5623 5619 5615 5612 5608 5606 5602 5600 5597